Wind_Speed
20 19 20 21 21 24 26 27 29 30 30 27 27 29 33 36 38 41 42 44 46 48 50 52 52 52 51 51 52 52 51 51 49 47 46 46 46 44 44 43 41 40 40 40
20 20 22 21 21 22 25 27 28 29 28 26 28 28 30 34 36 38 40 42 44 46 49 51 52 52 51 51 51 52 51 50 49 47 46 46 46 45 44 43 42 42 41 40
19 19 21 20 21 23 23 24 27 29 28 28 29 30 31 31 33 35 37 41 43 44 46 48 50 51 51 50 51 52 52 51 50 48 47 46 46 45 44 44 43 41 40 39
18 18 18 18 21 23 24 24 26 28 29 30 29 29 30 30 31 33 34 38 41 43 45 46 47 48 49 50 51 52 51 50 50 49 47 46 46 45 43 43 42 41 40 39
17 18 18 18 20 22 24 25 26 28 29 31 30 29 29 30 31 32 33 36 40 42 44 45 45 46 47 49 50 50 50 50 49 49 48 47 46 45 43 42 41 40 39 39
19 19 19 17 19 21 24 24 28 29 31 32 31 30 28 30 31 32 34 36 38 40 41 43 43 44 45 47 48 48 48 48 47 47 47 45 43 43 42 41 40 39 38 37
20 21 20 19 19 21 22 23 26 28 31 32 32 31 29 30 31 32 34 36 37 38 40 40 41 43 44 44 45 45 45 45 44 44 43 43 42 41 41 41 40 39 37 36
22 23 20 21 21 22 23 24 25 28 31 32 32 31 31 31 32 33 35 36 36 37 38 40 40 41 41 42 43 43 43 43 43 42 42 41 41 40 39 39 38 37 35 35
23 22 22 23 23 23 24 25 26 28 30 32 32 31 31 32 33 33 33 35 37 37 38 39 40 41 41 42 42 42 42 41 41 41 40 39 39 39 38 37 36 35 34 33
23 22 23 25 25 24 25 26 27 29 31 31 31 31 32 32 33 33 34 35 37 38 38 38 39 41 41 41 41 40 40 39 39 39 38 38 37 36 35 34 34 33 32 31
23 23 25 25 26 26 26 26 27 29 32 31 30 30 32 33 34 35 35 35 36 37 37 37 39 41 41 41 40 39 38 37 37 36 36 35 35 34 33 31 31 31 30 30
23 23 25 25 26 27 27 28 28 30 32 32 31 30 30 32 34 36 37 37 36 37 37 37 38 40 40 40 39 38 38 37 35 35 35 33 32 31 31 30 29 29 28 28
22 22 24 23 25 27 28 28 29 29 31 33 32 31 31 31 33 35 36 38 38 37 38 37 38 38 39 39 38 37 36 36 35 34 33 32 31 30 29 28 28 27 26 26
23 22 22 22 23 25 26 27 28 29 30 32 33 33 32 32 33 34 35 37 38 38 38 38 38 38 38 38 38 37 36 35 34 33 32 31 29 29 28 27 26 26 26 25
22 22 21 21 21 22 24 25 26 28 29 32 33 33 33 33 34 34 35 36 37 38 38 38 38 38 37 37 36 37 36 35 34 32 32 31 29 28 27 26 26 26 25 25
20 19 19 19 19 21 23 24 25 26 28 30 32 32 33 34 35 35 35 36 37 37 37 38 38 37 36 36 36 35 35 35 34 33 32 30 29 28 26 26 25 25 25 23
18 17 17 17 19 21 22 23 23 24 27 29 31 32 33 35 35 34 35 36 37 37 37 37 37 37 36 36 35 34 34 34 33 33 31 30 29 27 26 25 25 25 24 23
18 17 17 17 18 20 21 22 23 24 26 29 30 32 34 35 36 35 35 36 38 38 38 37 37 36 36 35 35 35 34 34 32 31 30 29 28 27 26 25 24 24 23 22
18 18 18 18 18 20 21 21 21 23 26 28 30 32 34 35 36 36 36 37 38 39 38 37 37 37 36 35 34 33 33 33 32 31 29 28 27 26 25 24 23 22 21 20
18 19 19 19 19 20 21 21 22 22 25 27 30 32 35 36 37 37 37 37 38 39 38 37 37 36 36 35 34 32 32 31 30 29 29 27 26 25 24 23 22 21 20 19
20 20 19 19 19 20 21 22 22 23 24 26 29 32 34 35 37 37 38 38 38 38 38 37 36 35 35 35 33 32 31 31 30 29 28 27 26 26 24 23 22 21 20 19
21 20 20 19 19 21 22 22 23 24 25 26 29 31 33 34 36 36 37 38 38 38 38 37 36 34 34 34 33 32 31 30 30 30 28 27 26 25 24 22 21 20 19 19
22 21 20 20 21 22 22 23 24 25 25 27 29 31 33 34 35 36 36 37 38 39 38 36 36 35 33 32 32 31 31 30 29 28 28 27 26 25 24 22 21 20 19 19
22 21 21 21 21 22 22 23 25 26 27 28 30 31 32 34 35 36 36 36 36 37 38 37 36 36 34 32 31 31 31 30 28 28 28 27 26 24 24 22 21 19 19 19
21 21 21 21 22 22 23 24 26 27 28 29 30 31 32 33 34 35 35 35 35 36 37 36 35 35 34 32 31 31 30 30 29 28 27 26 25 24 22 22 20 19 19 19
20 20 20 20 21 23 24 25 27 28 28 29 31 32 32 33 34 34 34 35 36 36 36 36 35 34 33 32 32 31 29 28 28 28 27 26 24 23 22 20 20 19 19 18
20 20 20 21 22 24 25 26 28 30 30 30 31 32 32 32 33 35 35 35 36 36 36 35 34 34 33 32 31 30 29 29 28 26 25 24 23 22 22 21 20 19 19 19
Wind_Direction
258 254 250 247 242 239 241 240 240 236 235 228 222 220 216 214 214 214 214 214 215 215 215 215 217 218 218 219 220 221 223 225 227 228 230 231 233 235 238 241 244 247 250 252
260 255 252 249 242 240 239 238 237 234 232 227 222 219 215 213 213 212 212 213 214 213 213 215 216 218 218 219 219 220 222 224 226 227 229 231 234 236 238 240 243 246 248 251
262 256 254 248 240 239 237 235 234 233 229 225 218 216 214 212 210 210 211 211 213 213 212 214 215 217 218 219 219 220 221 223 224 227 229 230 233 236 238 240 243 244 247 250
262 257 256 246 241 241 237 235 235 232 229 224 218 217 214 210 207 208 209 209 210 212 213 213 214 216 217 218 218 219 220 222 224 225 228 230 232 234 238 240 242 244 246 249
267 259 255 248 243 240 238 236 234 232 228 224 222 217 213 210 209 209 208 208 209 210 212 213 214 215 216 217 218 219 220 221 223 225 227 229 231 233 235 238 240 242 245 248
268 264 260 249 244 242 238 236 232 230 226 224 222 218 213 211 209 210 211 209 206 206 209 212 213 215 216 217 218 218 218 220 223 226 227 228 230 232 234 236 239 241 244 247
267 264 262 253 248 242 238 233 229 227 226 225 222 219 214 210 209 210 210 209 209 209 210 211 213 214 214 214 216 216 217 218 221 224 226 228 229 231 233 235 238 241 243 245
267 263 261 256 254 246 239 233 229 225 225 224 223 222 218 213 211 209 209 210 212 211 210 211 212 212 212 212 213 214 216 217 219 221 223 226 228 230 233 235 237 239 241 245
267 264 260 258 255 248 241 235 229 224 223 223 223 222 220 216 214 210 209 211 213 211 210 210 210 210 211 210 210 212 214 215 217 219 221 224 227 229 232 233 235 238 241 243
268 262 259 256 253 249 243 237 231 225 222 222 221 222 221 218 216 214 211 211 211 211 211 210 209 208 209 209 209 211 212 214 215 218 221 223 225 226 228 232 233 235 239 243
269 262 257 255 252 248 244 239 233 228 224 221 220 221 222 221 218 216 215 212 211 211 210 210 210 208 208 209 208 209 210 211 214 216 217 219 221 223 225 228 231 234 238 242
268 264 259 255 251 247 243 238 233 228 224 222 220 220 222 223 220 216 213 212 211 211 209 209 208 208 209 207 206 206 207 209 211 212 214 216 218 221 224 228 230 233 237 241
269 264 261 256 250 246 242 237 232 228 225 224 223 221 221 220 217 215 214 213 212 210 208 208 207 206 205 205 205 205 206 207 209 211 213 215 217 220 223 226 229 232 236 242
270 266 263 258 252 246 239 234 231 226 224 224 223 221 220 218 216 215 215 213 210 207 206 206 203 202 202 202 203 203 205 206 208 210 212 214 217 219 221 225 230 233 237 244
272 269 264 257 251 244 236 231 230 227 225 223 223 221 219 216 214 212 211 210 207 206 204 202 200 200 201 201 201 202 204 206 207 209 211 213 216 219 222 225 229 234 238 244
271 270 265 256 249 241 235 232 229 226 224 221 220 219 216 213 210 208 206 205 204 203 202 200 199 199 200 201 201 203 205 206 206 208 211 214 217 220 222 226 231 234 239 245
270 266 263 258 249 241 235 231 227 224 222 221 218 216 213 208 205 204 202 201 200 200 201 199 198 199 201 202 203 204 205 205 205 208 211 214 217 219 222 227 231 234 239 245
265 261 260 256 248 241 236 232 228 224 221 218 216 213 210 206 203 202 200 198 197 197 198 199 200 201 202 203 203 203 205 206 207 210 212 214 218 219 222 226 231 235 240 245
264 259 257 255 250 241 236 232 228 224 219 216 213 210 208 206 201 201 199 198 197 197 198 199 200 201 202 203 203 204 205 207 209 211 213 216 218 219 223 227 231 235 241 246
266 261 257 252 246 240 234 230 227 221 217 213 209 206 205 204 202 201 200 199 198 197 198 198 199 201 203 204 204 206 207 207 209 212 213 216 218 221 224 227 230 235 240 246
265 262 255 246 241 236 232 230 226 220 214 209 204 201 201 201 201 200 199 198 197 196 197 198 199 201 204 205 205 205 206 208 210 211 214 217 217 220 224 227 232 236 242 247
264 259 253 244 236 232 229 226 222 216 211 205 200 197 197 198 198 198 198 197 196 195 196 198 199 200 203 203 204 207 209 209 210 212 214 215 217 220 223 226 231 237 243 248
260 255 247 241 236 231 226 221 216 211 208 203 198 195 195 195 195 195 196 197 196 195 195 197 199 200 201 202 205 207 207 207 207 210 213 214 217 221 223 226 232 238 243 250
257 249 242 238 233 226 220 214 210 207 203 200 197 195 193 192 193 194 194 195 196 196 196 197 200 200 201 203 205 206 207 206 207 209 212 215 218 222 224 227 231 239 246 251
252 245 240 235 227 221 215 210 206 203 200 198 195 193 192 192 192 192 193 195 195 195 195 196 197 198 200 201 203 204 206 208 206 208 211 214 217 220 223 228 234 241 246 250
246 240 235 228 220 215 210 205 201 199 196 195 193 192 192 192 192 192 193 194 193 193 194 195 196 197 198 200 202 203 205 205 205 208 211 214 216 219 223 229 235 241 246 253
238 233 227 219 213 209 206 202 199 197 196 195 192 191 191 191 191 191 191 191 191 193 194 195 197 198 199 199 200 202 203 204 205 208 212 214 216 220 225 231 238 244 249 257
Height
5465 5465 5466 5467 5468 5470 5471 5473 5476 5479 5482 5487 5491 5496 5502 5507 5514 5521 5529 5537 5545 5553 5562 5571 5580 5589 5598 5607 5615 5624 5632 5640 5648 5655 5661 5666 5672 5677 5682 5686 5690 5693 5696 5698
5460 5460 5460 5461 5463 5464 5465 5468 5470 5473 5477 5481 5485 5489 5495 5500 5507 5514 5521 5529 5537 5545 5553 5562 5571 5580 5589 5597 5605 5613 5622 5631 5638 5644 5651 5657 5662 5668 5672 5676 5680 5684 5687 5689
5455 5455 5454 5456 5457 5458 5460 5462 5465 5467 5472 5474 5478 5483 5488 5493 5500 5507 5514 5521 5529 5537 5545 5553 5562 5570 5579 5587 5595 5603 5612 5620 5627 5634 5641 5647 5653 5658 5663 5667 5671 5674 5677 5680
5449 5450 5450 5453 5452 5453 5454 5457 5459 5461 5465 5468 5473 5477 5482 5488 5493 5500 5507 5514 5521 5529 5537 5545 5553 5561 5569 5576 5584 5593 5602 5610 5617 5624 5631 5637 5642 5648 5653 5657 5661 5665 5668 5671
5444 5443 5444 5447 5446 5447 5448 5451 5453 5456 5459 5463 5467 5471 5477 5482 5488 5493 5500 5507 5514 5521 5529 5536 5544 5551 5559 5567 5575 5583 5592 5600 5607 5614 5621 5627 5633 5638 5643 5648 5652 5655 5659 5661
5438 5438 5439 5442 5441 5440 5443 5445 5447 5449 5453 5457 5461 5467 5472 5476 5481 5487 5493 5500 5507 5514 5521 5529 5536 5543 5551 5558 5566 5574 5583 5590 5598 5605 5611 5618 5623 5629 5634 5638 5642 5646 5649 5652
5432 5431 5432 5435 5434 5435 5438 5440 5440 5443 5447 5451 5455 5461 5466 5470 5475 5481 5487 5494 5500 5507 5514 5521 5528 5535 5543 5550 5558 5566 5574 5581 5588 5595 5602 5608 5614 5619 5624 5629 5633 5637 5640 5644
5426 5426 5429 5428 5428 5429 5431 5432 5434 5437 5441 5445 5450 5454 5459 5464 5470 5476 5481 5488 5494 5501 5507 5514 5521 5528 5535 5543 5551 5558 5566 5573 5580 5587 5593 5599 5605 5610 5615 5620 5624 5628 5632 5635
5420 5422 5422 5421 5421 5422 5423 5425 5428 5431 5435 5439 5444 5448 5453 5458 5464 5469 5475 5482 5488 5494 5501 5507 5514 5522 5529 5536 5544 5551 5558 5565 5572 5579 5585 5591 5597 5602 5607 5611 5616 5620 5624 5627
5412 5413 5414 5413 5414 5415 5417 5419 5421 5424 5428 5433 5437 5442 5447 5452 5457 5463 5469 5475 5482 5488 5495 5501 5508 5515 5523 5530 5537 5544 5551 5559 5565 5572 5577 5584 5589 5594 5599 5604 5609 5613 5617 5620
5404 5405 5405 5406 5407 5408 5410 5412 5415 5418 5422 5427 5432 5436 5441 5446 5451 5457 5463 5469 5475 5482 5488 5495 5502 5509 5516 5524 5531 5538 5545 5552 5559 5565 5571 5577 5582 5588 5593 5598 5602 5606 5610 5613
5397 5397 5397 5398 5399 5400 5402 5405 5408 5412 5416 5420 5425 5430 5434 5439 5444 5450 5456 5462 5469 5475 5482 5489 5496 5504 5511 5518 5525 5532 5539 5546 5553 5559 5565 5571 5576 5582 5586 5591 5595 5599 5603 5606
5389 5389 5389 5390 5391 5392 5394 5397 5401 5405 5409 5414 5418 5423 5427 5432 5437 5443 5449 5456 5462 5469 5476 5483 5490 5498 5506 5513 5520 5527 5534 5541 5547 5554 5560 5565 5571 5576 5581 5585 5588 5592 5596 5599
5381 5381 5381 5382 5383 5384 5387 5390 5394 5398 5402 5407 5411 5416 5420 5426 5431 5437 5443 5449 5456 5463 5470 5478 5485 5493 5500 5508 5515 5522 5529 5536 5542 5548 5554 5560 5565 5570 5575 5579 5583 5586 5589 5592
5374 5374 5375 5375 5376 5378 5380 5383 5387 5391 5395 5400 5404 5408 5414 5419 5425 5431 5437 5443 5450 5457 5465 5473 5481 5488 5496 5503 5510 5517 5524 5531 5537 5543 5549 5554 5559 5564 5569 5573 5577 5580 5583 5586
5368 5368 5368 5369 5370 5372 5374 5377 5381 5384 5388 5393 5397 5401 5407 5412 5419 5425 5431 5438 5445 5453 5460 5468 5476 5484 5491 5499 5506 5513 5519 5526 5532 5538 5544 5549 5554 5559 5563 5567 5571 5574 5577 5580
5363 5363 5363 5363 5364 5366 5368 5371 5374 5378 5382 5386 5391 5395 5401 5407 5413 5420 5426 5433 5441 5449 5456 5464 5471 5479 5486 5494 5501 5508 5515 5521 5527 5533 5539 5544 5549 5553 5558 5561 5565 5568 5571 5573
5357 5357 5357 5357 5358 5360 5363 5366 5369 5372 5375 5380 5385 5390 5396 5402 5408 5415 5422 5429 5437 5445 5452 5459 5467 5474 5482 5489 5496 5503 5510 5516 5522 5528 5533 5539 5544 5548 5552 5556 5559 5562 5565 5567
5350 5350 5351 5351 5352 5354 5357 5359 5362 5366 5370 5374 5379 5384 5390 5397 5404 5411 5418 5426 5433 5441 5448 5455 5463 5470 5478 5485 5492 5498 5505 5511 5517 5523 5528 5533 5538 5543 5547 5550 5554 5557 5559 5562
5344 5344 5344 5344 5346 5348 5350 5353 5357 5360 5364 5369 5374 5379 5385 5392 5399 5407 5414 5422 5429 5436 5444 5452 5459 5466 5474 5481 5488 5494 5501 5507 5512 5518 5524 5529 5534 5538 5542 5545 5548 5551 5554 5556
5337 5337 5337 5338 5339 5342 5344 5347 5351 5355 5359 5364 5369 5375 5381 5388 5395 5402 5410 5418 5425 5433 5440 5448 5455 5462 5470 5477 5483 5490 5496 5502 5508 5514 5519 5524 5529 5533 5536 5540 5543 5546 5548 5550
5329 5329 5330 5331 5333 5336 5338 5341 5345 5349 5354 5359 5364 5370 5377 5384 5391 5398 5406 5414 5422 5429 5437 5444 5451 5458 5465 5472 5479 5485 5492 5497 5503 5509 5514 5519 5523 5528 5531 5535 5538 5541 5543 5545
5321 5321 5322 5324 5327 5330 5332 5335 5340 5344 5349 5355 5360 5366 5373 5380 5387 5394 5402 5410 5417 5425 5433 5440 5447 5454 5461 5468 5475 5481 5487 5493 5498 5504 5509 5514 5518 5522 5526 5530 5533 5535 5538 5539
5313 5314 5315 5317 5320 5323 5326 5330 5334 5339 5345 5350 5356 5362 5369 5376 5383 5391 5398 5406 5413 5421 5428 5436 5443 5450 5457 5464 5470 5476 5483 5488 5494 5499 5504 5509 5513 5517 5521 5525 5528 5530 5532 5534
5305 5306 5308 5311 5314 5317 5321 5325 5329 5335 5340 5346 5353 5359 5365 5372 5380 5387 5394 5402 5409 5417 5424 5431 5439 5446 5453 5459 5466 5472 5478 5484 5489 5495 5499 5504 5508 5512 5516 5519 5522 5525 5527 5529
5298 5299 5301 5304 5307 5311 5315 5320 5325 5330 5336 5343 5349 5355 5362 5369 5376 5383 5391 5398 5405 5413 5420 5428 5435 5442 5449 5455 5462 5468 5473 5479 5484 5490 5495 5499 5504 5507 5511 5514 5517 5520 5522 5523
5290 5293 5295 5298 5302 5306 5310 5315 5320 5326 5332 5339 5346 5352 5359 5366 5373 5380 5387 5395 5402 5410 5417 5424 5431 5438 5445 5451 5457 5463 5469 5475 5480 5485 5490 5495 5499 5503 5506 5509 5512 5514 5516 5517